(270) Anahita
ephemeris date magn radius delta ra dec elong phase
Today4 Sep 202614.02.333 AU3.057 AU13h05m-08°14'37.1°15.1°
Opposition3 Sep 202710.21.867 AU0.860 AU22h41m-02°42'174.8°2.8°
(270) Anahita - 2026-09-04
astro.vanbuitenen.nl


 
-1 year
-1 month
-1 day
Now
+1 day
+1 month
+1 year

The interactive orbit chart above shows the body's path through the solar system and its position at the given date. Green and blue lines are shown perpendicular to the ecliptic plane: Green if the path is above the ecliptic plane, blue if it is below. (Left-click and drag to rotate the view; Right-click and drag to move the view; Use scroll wheel to zoom in our out.)

The orbital elements of Anahita are:

            e (Eccentricity)                : 0.1510197
            a (Semimajor axis)              : 2.1979132
            i (Inclination)                 : 2.36734
            Ω (Longitude of ascending node) : 254.27430
            ω (Argument of perihelion)      : 80.81191
            M (Mean anomaly)                : 227.49561
            Epoch                           : 2026 Jun 09

            L (Longitude of perihelion)     : 335.07850
            B (Latitude of perihelion)      : 2.33695
            P (Orbital period in years)     : 3.26            
        

The light curve chart below shows the estimated development of the minor planet's magnitude.


The all-sky chart below shows the path of the minor planet over the same period as the light curve. The current position is marked yellow.





The following chart shows the path of the minor planet in the next few days. The field of view is optimized for (~10x50) binoculars and finderscopes.




Ephemerides:
Date       Time       RA (2000)    DEC (2000)    delta   radius  elong  phase   PA    magn
2026-09-04 00:00 UT   13 05 21.5   -08 14 09     3.057    2.333   37.1   15.1   114   14.0 
2026-09-04 04:54 UT   13 05 42.0   -08 16 08     3.058    2.333   37.0   15.1   114   14.0 
2026-09-05 00:00 UT   13 07 02.4   -08 23 51     3.063    2.332   36.6   14.9   114   14.0 
2026-09-06 00:00 UT   13 08 43.7   -08 33 34     3.069    2.330   36.1   14.8   114   14.0 
2026-09-07 00:00 UT   13 10 25.4   -08 43 16     3.074    2.329   35.5   14.6   114   14.0 
2026-09-08 00:00 UT   13 12 07.5   -08 52 60     3.080    2.327   35.0   14.4   114   14.0 
2026-09-09 00:00 UT   13 13 49.9   -09 02 44     3.085    2.326   34.5   14.2   114   14.0 
2026-09-10 00:00 UT   13 15 32.7   -09 12 28     3.090    2.324   34.0   14.0   114   14.0 
2026-09-11 00:00 UT   13 17 15.9   -09 22 13     3.095    2.323   33.5   13.8   114   13.9 
2026-09-12 00:00 UT   13 18 59.5   -09 31 57     3.101    2.321   32.9   13.6   114   13.9 
2026-09-13 00:00 UT   13 20 43.4   -09 41 42     3.106    2.320   32.4   13.5   114   13.9 
2026-09-14 00:00 UT   13 22 27.7   -09 51 27     3.110    2.318   31.9   13.3   114   13.9 
2026-09-15 00:00 UT   13 24 12.3   -10 01 11     3.115    2.317   31.4   13.1   114   13.9 
2026-09-16 00:00 UT   13 25 57.3   -10 10 56     3.120    2.315   30.9   12.9   114   13.9 
2026-09-17 00:00 UT   13 27 42.7   -10 20 40     3.124    2.313   30.4   12.7   113   13.9 
2026-09-18 00:00 UT   13 29 28.4   -10 30 25     3.129    2.312   29.9   12.5   113   13.9 
2026-09-19 00:00 UT   13 31 14.5   -10 40 08     3.133    2.310   29.3   12.3   113   13.9 
2026-09-20 00:00 UT   13 33 00.9   -10 49 52     3.137    2.309   28.8   12.1   113   13.9 
2026-09-21 00:00 UT   13 34 47.7   -10 59 35     3.141    2.307   28.3   11.9   113   13.9 
2026-09-22 00:00 UT   13 36 34.9   -11 09 17     3.145    2.306   27.8   11.7   113   13.9 


    Terminology:
            
    delta:  distance between minor planet and earth in AU
    radius: distance between minor planet and sun in AU
    magn:   magnitude (brightness) estimate    
    ra:     right ascension in hours (24h = 360deg)
    dec:    declination in degrees
    elong:  elongation in degrees (angle sun-earth-minor planet)    
    phase:  phase angle in degrees (angle sun-minor planet-earth)        
    AU:     Astronomical Unit (mean distance between earth and sun: 149597870.7 km
    

Orbital elements provided by the MPC (Minor Planet Center).
Calculations by a modified version of AAPlus, a C# implementation of the AA+ project by PJ Naughter from the algorithms presented in the book "Astronomical Algorithms" by Jean Meeus.
NGC2000 dso catalog and star labels from VizieR as provided by the Strasbourg astronomical Data Center.
Tycho2 catalog from the ESO archive.